Regional Weather Roundup
Issued by NWS

Home | Current Version | Previous Version | Text Only | Print | Product List | Glossary On
Versions: 1 2 3 4 5 6 7 8 9 10 11 12 13 14 15 16 17 18 19 20 21 22 23 24 25 26 27 28 29 30 31 32 33 34 35 36 37 38 39 40 41 42 43 44 45 46 47 48 49 50
000
ASUS43 KLSX 211607
RWRMO

WEATHER SUMMARY FOR MISSOURI
NATIONAL WEATHER SERVICE SPRINGFIELD MO
1000 AM CST TUE NOV 21 2017

NOTE: "FAIR" INDICATES FEW OR NO CLOUDS BELOW 12,000 FEET WITH NO
       SIGNIFICANT WEATHER AND/OR OBSTRUCTIONS TO VISIBILITY.
       CURRENT SKY AND/OR WEATHER CONDITIONS ARE NOT AVAILABLE FOR
       CHILLICOTHE AND FARMINGTON.

MOZ001>031-035>038-043-044-053-054-211700-
...NORTHERN AND WESTERN MISSOURI...

CITY           SKY/WX    TMP DP  RH WIND       PRES   REMARKS
KANSAS CTY INT PTSUNNY   48  29  47 N18       30.02R
KANSAS C DTWN  PTSUNNY   50  28  42 N12       30.02R
LEE`S SUMMIT   CLOUDY    48  29  47 N17G24    30.00R
ST JOSEPH      CLOUDY    44  27  51 N21       30.06R
CHILLICOTHE      N/A     47  28  47 N8        30.02R
KIRKSVILLE     CLOUDY    44  25  47 N10       29.97R

$$
MOZ066>068-077>081-088>096-101>105-211700-
...SOUTHWEST MISSOURI...

CITY           SKY/WX    TMP DP  RH WIND       PRES   REMARKS
SPRINGFIELD    PTSUNNY   53  36  52 W7        29.95R
JOPLIN         CLOUDY    51  38  60 W8        29.98R
BRANSON        PTSUNNY   55  36  47 CALM      29.95R

$$
MOZ032>034-039>042-045>050-055>058-069>072-211700-
...CENTRAL MISSOURI...

CITY           SKY/WX    TMP DP  RH WIND       PRES   REMARKS
COLUMBIA       CLOUDY    50  34  54 NW15      29.95R
JEFFERSON CITY CLOUDY    48  34  58 CALM      29.96R
ROLLA          MOSUNNY   47  33  58 SW10      29.94R
SEDALIA        PTSUNNY   49  35  58 N20       29.98R
WHITEMAN AFB   PTSUNNY   48  29  48 N18G25    29.94R
WARRENSBURG    CLOUDY    46  28  49 N16G24    29.99R
OSAGE BEACH    PTSUNNY   48  35  60 SW3       29.97

$$
MOZ051-052-059>065-211700-
...EAST CENTRAL MISSOURI...

CITY           SKY/WX    TMP DP  RH WIND       PRES   REMARKS
ST LOUIS INTL  PTSUNNY   53  33  46 SW12      29.93R
SPIRIT OF STL  CLOUDY    52  33  48 W16       29.92R
ST CHARLES     PTSUNNY   51  33  50 W8        29.93R

$$
MOZ072>076-082>087-097>100-106>115-211700-
...SOUTH CENTRAL AND SOUTHEAST MISSOURI...

CITY           SKY/WX    TMP DP  RH WIND       PRES   REMARKS
CAPE GIRARDEAU MOSUNNY   46  33  60 S10       30.00S
FARMINGTON     MOSUNNY   48  33  56 S13       29.96R
POPLAR BLUFF   MOSUNNY   48  34  58 S13       30.00S
WEST PLAINS    PTSUNNY   51  33  50 SW8       29.96R

$$



USA.gov is the U.S. government's official web portal to all federal, state and local government web resources and services.